This is the latest recevied weather packets stored in our database for station/object DK8HC-WX. If no packets are shown the sender has not sent any weather packets the latest 10 day(s).
| Time | Temp. | Humidity | Pressure | Rain* | Wind** | Luminosity | Snow |
|---|---|---|---|---|---|---|---|
| 1777986715 | 15° C | 100% | 1013.1 hPa | - | - | - | - |
| 1777986116 | 15.56° C | 100% | 1013.5 hPa | - | - | - | - |
| 1777985515 | 15.56° C | 100% | 1014.1 hPa | - | - | - | - |
| 1777984915 | 15.56° C | 100% | 1014.8 hPa | - | - | - | - |
| 1777984315 | 15.56° C | 100% | 1015.2 hPa | - | - | - | - |
| 1777983115 | 15.56° C | 100% | 1016.6 hPa | - | - | - | - |
| 1777982515 | 15.56° C | 100% | 1017.9 hPa | - | - | - | - |
| 1777981915 | 15.56° C | 100% | 1019 hPa | - | - | - | - |
| 1777981315 | 14.44° C | 100% | 1019.9 hPa | - | - | - | - |
| 1777980715 | 14.44° C | 100% | 1021 hPa | - | - | - | - |
| 1777980115 | 15° C | 100% | 1022.2 hPa | - | - | - | - |
| 1777979515 | 14.44° C | 100% | 1023.4 hPa | - | - | - | - |
| 1777978915 | 14.44° C | 100% | 1024.8 hPa | - | - | - | - |
| 1777978315 | 15.56° C | 100% | 1027.4 hPa | - | - | - | - |
| 1777977715 | 15° C | 100% | 1029.4 hPa | - | - | - | - |
| 1777977115 | 15.56° C | 100% | 1031.8 hPa | - | - | - | - |
| 1777976514 | 14.44° C | 100% | 1033.3 hPa | - | - | - | - |
| 1777975914 | 13.89° C | 100% | 1034 hPa | - | - | - | - |
| 1777975314 | 13.33° C | 100% | 1034.7 hPa | - | - | - | - |
| 1777974714 | 13.33° C | 100% | 1035.9 hPa | - | - | - | - |
| 1777974114 | 13.33° C | 100% | 1037.3 hPa | - | - | - | - |
| 1777973515 | 13.89° C | 100% | 1038.8 hPa | - | - | - | - |
| 1777972914 | 13.89° C | 100% | 1040 hPa | - | - | - | - |
| 1777972314 | 13.33° C | 100% | 1040.5 hPa | - | - | - | - |
| 1777971714 | 13.33° C | 100% | 1041.3 hPa | - | - | - | - |
* Rain since midnight (hover to see other rain measurements)
** Current wind speed in m/s (hover to see current wind gust speed)